Regional Weather Roundup
Issued by NWS New Orleans/Baton Rouge, LA

Home | Current Version | Previous Version | Text Only | Print | Product List | Glossary Off
Versions: 1 2 3 4 5 6 7 8 9 10 11 12 13 14 15 16 17 18 19 20 21 22 23 24 25 26 27 28 29 30 31 32 33 34 35 36 37 38 39 40 41 42 43 44 45 46 47 48 49 50

132
ASUS44 KLIX 290501
RWRLIX
NEW ORLEANS REGIONAL WEATHER ROUNDUP
NATIONAL WEATHER SERVICE NEW ORLEANS LA
1200 AM CDT FRI AUG 29 2014

NOTE: "FAIR" INDICATES FEW OR NO CLOUDS BELOW 12,000 FEET WITH NO
      SIGNIFICANT WEATHER AND/OR OBSTRUCTIONS TO VISIBILITY.
      SKY/WX - SKY CONDITION AND SIGNIFICANT WEATHER.
      TMP - AIR TEMPERATURE.     DP    - DEWPOINT TEMPERATURE.
      RH  - RELATIVE HUMIDITY.   PRES  - PRESSURE.
      HI  - HEAT INDEX.          WCI   - WIND CHILL INDEX.

*  THESE STATIONS ARE NOT NWS OR FAA STATIONS AND ARE NOT UNDER
   NWS QUALITY CONTROL.

LAZ038-040-048-061>063-065>067-069-290600-
SOUTHEAST LOUISIANA

CITY           SKY/WX    TMP DP  RH WIND       PRES   REMARKS
N.O. AUDUBON     N/A     83  77  82 MISG        N/A
N.O. INTL ARPT PTCLDY    81  73  76 S3        29.96F
N.O. LAKEFRONT CLEAR     81  75  82 SE7       29.98R
N.O. DOWNTOWN*   N/A     82  72  69 SE3       29.97F
SLIDELL        PTCLDY    75  72  90 CALM      29.97S
BATON ROUGE    MOCLDY    79  72  79 SE5       29.97S
BOOTHVILLE     CLEAR     82  75  79 E3        29.97S
BELLE CHASSE   CLEAR     81  72  74 SE6       29.96F
BOGALUSA*        N/A     77  73  85 CALM      30.00S
GALLIANO*      NOT AVBL
NEW ROADS*       N/A     79  76  90 CALM      29.97S
GONZALES*        N/A     79  77  94 CALM      29.96F
HAMMOND*       NOT AVBL
HOUMA*         CLEAR     76  72  87 E3        29.96F
PORT FOURCHON* PTCLDY    84  73  70 E10       29.96F

$$

MSZ070-080>082-290600-
SOUTHERN MISSISSIPPI

CITY           SKY/WX    TMP DP  RH WIND       PRES   REMARKS
MCCOMB         CLOUDY    77  72  84 SE5       29.99S
GULFPORT       CLEAR     78  72  81 CALM      29.97F
BILOXI         PTCLDY    83  72  68 SE5       29.98S
PASCAGOULA     PTCLDY    71  70  96 CALM      29.99S FOG

$$

COASTAL OBSERVATIONS
LAKE AND NEARSHORE STATIONS

STATION/POSITION TIME  TEMP    WIND        PRES    WAVE
                       AIR SEA DIR/SP/G            HT/PER
                 (UTC) (F)     (DEG/KT/KT) (MB)    (FT/S)
PASCAGOULA       0400   83     130/  6/  9 1014.8
WAVELAND YACHT   0400   84     150/  9/ 12 1014.4
GRAND ISLE       0400   84 84  120/  5/ 11 1015.2
SOUTHWEST PASS   0400   84 89  110/ 16/ 19 1014.7
NEW CANAL        0400   82 84  140/  3/  7 1015.2
SHELL BEACH      0400   82 82  130/  8/  9 1014.7

OFFSHORE STATIONS

STATION/POSITION TIME  TEMP    WIND        PRES    WAVE
                       AIR SEA DIR/SP/G            HT/PER
                 (UTC) (F)     (DEG/KT/KT) (MB)    (FT/S)
64 S DAUPHIN ISL 0402   85 85  130/ 14/ 16 1014.7

$$




USA.gov is the U.S. government's official web portal to all federal, state and local government web resources and services.